Location: Observatoire
(46.1952°N, 5.3391°E)
Time: 07:01:17
(UTC+01:00)

Vanguard 3 - All Passes

Search period start: 18 February 2026 00:00
Search period end: 28 February 2026 00:00
Orbit: 507 x 3205 km, 33.3° (Epoch: 17 February)

Date Brightness Start Highest point End Pass type
(mag) Time Alt. Az. Time Alt. Az. Time Alt. Az.
18 Feb - 14:40:28 10° S 14:46:27 15° SSE 14:51:11 10° SE daylight
18 Feb - 16:50:24 10° SW 16:57:57 24° S 17:03:02 10° ESE daylight
18 Feb - 19:03:14 10° WSW 19:08:31 23° SSW 19:12:18 10° SE visible
19 Feb - 15:27:32 10° SSW 15:36:05 22° SSE 15:42:01 10° ESE daylight
19 Feb - 17:39:51 10° SW 17:47:18 28° S 17:52:11 10° SE daylight
19 Feb - 19:53:29 10° WSW 19:57:26 17° SSW 20:00:31 10° SSE visible
20 Feb - 14:05:34 10° SSW 14:13:49 18° SSE 14:20:05 10° ESE daylight
20 Feb - 16:16:20 10° SW 16:25:38 29° S 16:31:39 10° ESE daylight
20 Feb - 18:29:49 10° WSW 18:36:28 26° SSW 18:40:56 10° SE visible
20 Feb - 20:45:29 10° SW 20:46:06 10° SSW 20:46:42 10° SSW visible
21 Feb - 12:46:01 10° SSE 12:51:16 12° SSE 12:55:50 10° SE daylight
21 Feb - 14:53:05 10° SSW 15:03:32 26° SSE 15:10:35 10° ESE daylight
21 Feb - 17:06:00 10° WSW 17:15:04 32° S 17:20:46 10° ESE daylight
21 Feb - 19:20:10 10° WSW 19:25:24 21° SSW 19:29:11 10° SSE visible
22 Feb - 13:30:44 10° SSW 13:41:01 21° SSE 13:48:37 10° ESE daylight
22 Feb - 15:42:06 10° SW 15:53:10 33° S 16:00:09 10° ESE daylight
22 Feb - 17:56:09 10° WSW 18:04:18 30° SSW 18:09:31 10° SE daylight
22 Feb - 20:11:30 10° WSW 20:14:03 13° SSW 20:16:13 10° S visible
23 Feb - 12:10:31 10° S 12:18:15 15° SSE 12:24:45 10° ESE daylight
23 Feb - 14:18:33 10° SW 14:30:47 29° SSE 14:38:58 10° ESE daylight
23 Feb - 16:31:56 10° WSW 16:42:41 36° S 16:49:16 10° ESE daylight
23 Feb - 18:46:39 10° WSW 18:53:17 24° SSW 18:57:48 10° SSE visible
24 Feb - 12:56:00 10° SSW 13:08:00 24° SSE 13:16:54 10° ESE daylight
24 Feb - 15:07:43 10° SW 15:20:30 36° S 15:28:31 10° ESE daylight
24 Feb - 17:22:14 10° WSW 17:32:00 34° SSW 17:38:02 10° SE daylight
24 Feb - 19:37:50 10° WSW 19:41:55 15° SW 19:45:08 10° S visible
25 Feb - 11:35:28 10° S 11:45:02 17° SE 11:53:05 10° ESE daylight
25 Feb - 13:43:59 10° SW 13:57:49 33° SSE 14:07:10 10° ESE daylight
25 Feb - 15:57:40 10° WSW 16:10:07 40° S 16:17:39 10° ESE daylight
25 Feb - 18:12:52 10° WSW 18:21:01 27° SSW 18:26:21 10° SSE daylight
26 Feb - 12:21:21 10° SSW 12:34:47 26° SSE 12:44:56 10° ESE daylight
26 Feb - 14:33:14 10° SW 14:47:37 40° S 14:56:45 10° ESE daylight
26 Feb - 16:48:06 10° WSW 16:59:31 38° SSW 17:06:27 10° SE daylight
26 Feb - 19:04:03 10° WSW 19:09:42 18° SW 19:13:52 10° S visible
27 Feb - 11:00:44 10° S 11:11:40 19° SE 11:21:00 10° ESE daylight
27 Feb - 13:09:27 10° SW 13:24:37 35° SSE 13:35:12 10° ESE daylight
27 Feb - 15:23:17 10° WSW 15:37:20 43° S 15:45:55 10° ESE daylight
27 Feb - 17:38:51 10° WSW 17:48:39 31° SSW 17:54:50 10° SE daylight
